Temp
15 15 15 15 15 15 15 16 16 16 16 16 15 16 15 15 16 16 16 16 16 16
13 13 14 13 13 12 13 14 15 15 14 15 15 15 16 16 16 16 16 16 16 15
8 9 9 10 9 9 10 11 12 12 13 13 13 14 14 14 14 14 14 13 13 13
6 7 7 7 7 7 8 9 9 10 9 10 10 10 11 10 11 11 10 10 10 9
4 5 5 4 4 5 6 6 5 6 6 6 6 7 7 6 6 8 8 7 7 7
3 3 3 4 4 5 4 5 5 5 5 5 5 5 5 5 5 6 5 5 5 5
2 3 3 3 3 3 3 3 4 4 3 3 3 3 4 4 4 4 5 5 5 4
2 2 2 2 2 2 2 1 1 2 2 2 2 1 2 3 2 2 2 3 3 4
3 2 2 2 2 1 1 1 1 1 0 0 -0 -0 1 1 2 2 3 3 3 3
3 1 1 0 1 0 -0 0 1 1 1 1 -0 -0 0 2 2 2 2 2 2 2
3 2 2 2 1 1 1 1 1 1 1 1 0 -0 0 1 2 2 2 2 2 2
2 2 2 1 1 0 0 0 -0 -0 -0 -0 0 -0 -0 -0 1 1 1 2 2 2
1 1 1 0 0 -0 -0 -0 -0 0 0 0 0 -0 -1 -0 -0 -0 0 1 1 1
1 1 0 -0 -0 -0 -0 0 1 1 1 1 0 -0 -1 -0 -0 -0 -0 -0 0 -0
Height
727 729 730 731 731 731 731 731 731 731 734 737 741 741 743 747 749 752 752 756 757 759
725 726 728 729 730 729 728 727 729 728 731 735 735 737 739 743 746 748 750 750 751 752
727 728 729 730 731 731 729 727 727 726 728 731 725 730 735 736 739 743 744 746 746 744
731 732 732 732 733 731 730 730 729 730 731 730 730 732 733 736 738 741 744 743 742 743
738 737 736 737 737 735 733 735 735 735 735 736 737 737 737 742 742 742 743 748 743 741
747 745 744 744 741 739 739 739 738 739 741 740 742 741 742 745 748 748 750 743 747 743
752 751 750 749 743 746 745 743 743 743 747 745 745 748 746 746 751 750 745 745 750 745
755 753 752 749 750 751 751 748 747 745 748 748 748 754 747 747 752 753 755 753 747 746
759 757 755 754 754 754 753 752 751 750 750 749 751 750 751 755 755 753 751 749 748 749
763 761 760 760 759 758 757 755 756 755 755 756 755 755 754 753 753 752 750 749 749 748
765 764 763 762 762 760 760 759 759 757 757 756 756 756 754 752 751 750 750 750 749 747
766 765 764 763 763 762 762 761 760 759 758 758 757 756 754 753 750 750 749 749 749 747
768 767 765 764 763 762 762 761 760 759 759 758 757 756 754 753 751 751 750 749 748 746
768 767 766 764 763 762 761 760 760 759 759 758 758 757 756 756 754 752 751 750 747 746
Wind_Speed
18 20 22 18 19 22 25 26 25 24 27 32 32 23 23 26 26 23 27 29 28 30
3 4 11 10 11 9 8 11 17 15 18 26 21 16 17 19 21 22 28 32 34 34
14 11 8 6 8 7 8 6 5 5 3 2 7 5 11 9 10 14 15 14 13 19
18 16 16 15 13 14 13 12 12 9 9 9 10 8 7 6 4 5 5 5 6 9
24 24 25 23 22 21 21 20 21 19 18 18 17 18 18 16 14 11 11 13 12 14
24 26 25 22 22 23 22 22 22 22 20 19 18 17 18 18 17 14 12 15 15 15
21 20 20 19 24 20 17 19 19 19 18 20 19 15 12 12 11 12 17 15 11 13
15 16 16 18 18 16 15 15 15 15 13 13 14 12 15 11 10 7 5 5 9 11
12 13 14 13 12 10 11 14 11 11 9 9 11 13 11 5 4 5 8 11 10 9
9 9 10 9 9 10 10 10 10 9 9 8 9 10 11 9 8 8 10 10 11 10
8 7 7 8 8 9 9 8 8 8 8 8 10 12 12 9 10 9 8 10 10 9
6 6 5 7 8 8 8 8 8 8 7 7 8 11 13 12 13 13 12 11 10 9
6 5 6 6 7 8 9 9 9 8 7 6 9 10 13 13 14 14 14 13 12 12
4 4 5 5 7 8 9 9 9 9 6 5 7 8 9 9 10 11 11 13 13 14
Wind_Direction
238 242 247 250 249 259 258 249 242 232 236 240 241 235 230 221 236 241 247 250 251 253
245 278 263 275 277 286 289 268 246 224 236 235 245 247 255 242 245 253 252 256 257 256
73 76 77 82 63 52 40 43 38 32 270 254 154 213 243 250 259 263 266 271 271 267
79 81 82 77 70 68 68 64 63 69 67 69 71 79 83 82 96 86 43 38 44 15
69 78 81 78 80 81 81 80 76 77 80 76 72 69 66 49 45 59 54 23 33 27
54 60 62 65 69 73 76 75 73 64 55 62 58 62 61 45 38 40 39 39 18 30
57 55 53 44 52 47 56 71 74 72 57 56 52 39 51 52 31 28 35 33 23 22
49 51 47 47 47 53 38 49 56 59 52 41 45 29 42 33 3 352 9 27 27 29
33 36 31 24 31 34 43 44 39 44 41 40 38 27 32 35 36 45 37 36 34 41
38 37 40 37 43 42 37 42 50 54 60 72 48 32 27 35 43 33 33 33 24 31
20 23 33 36 35 31 31 31 40 38 46 62 38 29 26 37 43 24 29 18 7 15
7 16 23 30 22 17 20 22 24 26 30 43 39 25 25 27 34 26 17 8 1 358
354 8 15 14 12 11 14 11 15 22 23 27 22 22 22 22 23 12 359 357 356 356
336 356 355 9 11 9 13 10 0 0 10 26 13 11 17 11 7 355 345 342 349 344